Lid_Strength_Index
-1 0 1 3 9 9 11 10 8 8 8 7 6 7 7 7 7 11 3 1 1 0 -0 -1 -1 -1 -1 -1 -1 -1 -1 -2 -1 -1 -1 -2 -2 -2 -2 -2 -2 -2 -1 -0 0 -0 -1 -1 -1
2 1 2 5 10 12 11 9 9 8 7 7 7 7 7 8 4 4 3 1 1 0 -0 -0 -0 -1 -1 -2 -1 -1 -2 -1 -1 -1 -2 -2 -2 -2 -2 -2 -2 -2 -1 -0 -0 -0 -1 -2 -2
1 2 5 8 10 12 11 9 8 7 7 7 8 6 7 7 4 3 2 1 1 0 -0 -0 -1 -2 -2 -2 -2 -1 -1 -1 -2 -1 -2 -2 -2 -2 -2 -2 -2 -2 -1 -1 -1 -1 -2 -2 -2
3 3 5 9 11 10 9 9 8 7 7 7 7 8 5 3 4 2 1 1 1 1 -0 -0 -1 -2 -1 -2 -2 -2 -2 -2 -1 -1 -2 -2 -2 -2 -2 -2 -2 -2 -1 -0 0 -0 -1 -2 -2
3 5 9 10 10 10 8 7 8 8 8 8 8 8 7 3 2 1 1 1 1 1 -0 -1 -1 -1 -2 -1 -2 -2 -2 -2 -2 -2 -2 -2 -2 -2 -2 -2 -2 -2 -2 -1 0 1 0 -0 -1
6 7 10 11 10 9 8 8 8 9 8 9 10 7 7 4 2 2 1 1 1 1 0 -0 1 0 -1 -1 -1 -2 -2 -2 -2 -2 -2 -2 -2 -2 -2 -2 -2 -2 -2 -2 -1 1 1 1 1
7 8 11 11 10 9 8 8 9 9 8 8 8 9 7 5 3 2 2 1 1 0 0 -0 -0 -0 1 0 -0 -1 -1 -1 -1 -1 -2 -2 -2 -2 -2 -2 -2 -2 -2 -2 -2 0 2 2 2
6 8 11 13 11 10 8 8 7 8 9 7 7 9 9 8 5 2 2 2 1 1 1 1 -0 -0 -0 -0 1 0 -1 -1 -1 -1 -0 -0 -0 -1 -1 -1 -2 -2 -2 -2 -1 -0 1 2 3
6 10 11 11 11 10 8 9 8 8 9 8 7 8 7 7 5 3 3 3 3 5 5 2 0 0 0 -0 1 2 1 1 0 1 2 2 0 -0 -0 -0 -2 -2 -2 -2 -1 -1 0 3 2
8 10 10 9 9 10 8 9 8 9 9 9 8 7 6 6 6 6 6 6 5 5 5 7 5 1 0 0 -0 -0 -0 -0 -0 0 1 -0 0 -0 0 1 1 -1 -1 -1 -1 -0 -1 1 3
8 10 9 9 8 7 8 9 8 10 10 9 9 8 7 7 7 7 7 6 7 6 5 4 7 3 1 -0 0 0 0 0 -0 -0 1 -1 0 1 1 2 2 1 2 1 0 0 1 2 3
10 8 8 7 8 8 9 8 9 9 10 8 8 8 8 8 8 8 8 7 7 6 5 4 4 4 -0 -0 1 2 3 3 2 2 0 -0 -0 0 1 1 2 2 1 1 1 1 1 2 2
10 9 8 8 8 8 7 9 9 10 8 8 8 8 9 9 9 8 7 6 6 6 5 4 3 4 -0 2 4 5 6 6 5 4 2 1 1 2 2 2 2 3 2 2 3 2 3 3 3
8 8 8 8 8 8 9 9 9 9 8 9 8 9 10 10 10 9 8 7 7 6 5 3 3 2 4 5 6 6 7 7 6 6 5 3 3 3 4 3 3 3 3 3 3 3 3 3 4
8 10 9 9 8 9 9 10 10 9 9 9 10 10 10 10 9 10 9 8 8 7 6 5 5 5 6 7 7 8 8 8 8 8 7 6 5 5 4 5 5 5 4 4 4 5 5 5 5
10 11 13 9 8 10 10 13 9 9 10 10 10 11 10 10 10 9 8 9 8 7 7 7 7 8 7 7 8 8 9 9 9 8 7 8 6 6 6 6 6 6 6 6 5 6 7 8 9
11 14 12 11 9 10 11 12 10 9 10 10 10 11 10 11 11 10 9 10 9 7 8 9 10 10 10 10 10 10 10 11 11 10 9 9 8 8 9 9 10 10 11 12 10 10 10 12 11
13 14 12 12 11 11 12 12 11 10 10 11 10 11 11 11 11 10 10 10 9 9 9 10 11 11 11 11 11 12 12 12 12 12 12 11 11 11 11 11 12 12 13 13 13 12 12 13 13
12 13 13 11 10 12 13 12 10 10 11 11 11 11 12 12 12 10 10 11 10 9 10 11 11 11 11 11 12 13 13 13 13 13 13 13 12 12 13 13 13 13 14 14 14 14 14 14 13
12 13 13 12 11 13 13 13 11 10 11 11 11 11 12 13 13 12 12 11 11 11 11 11 11 11 11 11 12 12 13 13 14 14 14 14 14 14 13 14 14 14 14 15 15 15 15 15 14
12 13 13 13 11 12 14 15 13 11 10 10 11 11 11 13 13 12 13 12 12 12 12 12 11 11 12 12 12 13 13 14 14 15 15 14 14 14 14 14 14 14 14 15 15 15 15 16 15
14 11 11 12 14 17 13 18 14 12 11 12 13 14 14 13 13 13 13 13 13 12 12 12 12 12 11 11 12 14 15 15 15 15 15 15 14 14 14 14 14 14 14 15 15 15 15 16 16
13 12 13 13 15 16 15 17 16 13 13 14 14 14 14 14 14 14 13 13 13 13 13 13 13 12 12 13 14 14 15 14 14 14 15 15 15 15 14 14 15 15 15 15 16 16 16 16 16
11 13 14 14 15 19 15 16 15 13 13 13 13 14 14 15 15 14 15 14 14 14 14 13 14 14 14 14 14 14 14 14 15 15 15 15 16 16 15 15 15 15 16 16 16 16 16 16 16
13 15 19 19 19 19 15 16 14 13 13 12 14 14 14 15 15 16 16 16 15 15 15 15 15 15 14 14 14 14 14 14 15 15 15 16 16 16 16 16 16 16 16 16 16 16 16 16 17
14 14 18 23 22 19 18 19 15 14 14 12 13 13 14 15 16 16 16 16 16 15 16 15 15 15 14 14 14 14 14 14 15 15 16 16 16 16 16 16 16 16 16 17 17 17 17 18 18
14 16 13 17 21 21 18 16 15 15 15 14 14 14 15 15 16 16 16 15 15 15 15 15 15 15 15 15 15 15 15 15 15 16 16 16 17 16 16 17 17 17 17 17 18 18 18 19 18
13 12 16 16 22 23 18 17 16 17 16 15 15 15 15 15 16 16 16 16 15 15 15 15 15 15 15 15 15 14 15 15 16 16 17 17 17 17 18 18 18 18 18 18 19 19 19 19 19
14 15 14 14 16 20 21 18 15 14 14 14 14 14 14 15 16 16 16 15 15 15 15 15 15 15 15 15 15 15 16 16 16 17 17 17 18 18 18 18 18 18 19 19 19 20 19 19 19
11 13 13 16 18 17 18 17 13 13 13 13 14 13 14 14 15 16 16 15 15 15 15 15 15 15 15 14 15 16 16 17 18 18 18 18 18 18 18 18 19 19 19 19 19 20 20 20 20